Location: St. Louis
(38.6270°N, 90.1994°W)
Time: 17:39:16
(UTC-06:00)

A-11 Canister half - Visible Passes

Search period start: 29 November 2021 00:00
Search period end: 09 December 2021 00:00
Orbit: 1524 x 1684 km, 47.3° (Epoch: 29 November)

Date Brightness Start Highest point End Pass type
(mag) Time Alt. Az. Time Alt. Az. Time Alt. Az.
29 Nov 9.6 03:00:33 51° ENE 03:00:33 51° ENE 03:07:25 10° ENE visible
29 Nov 9.3 04:58:52 33° WNW 05:03:23 54° N 05:13:00 10° ENE visible
30 Nov 10.0 02:40:13 39° ENE 02:40:13 39° ENE 02:45:44 10° ENE visible
30 Nov 9.3 04:38:31 42° WNW 04:41:37 54° N 04:51:16 10° ENE visible
01 Dec 10.4 02:19:51 30° ENE 02:19:51 30° ENE 02:24:01 10° ENE visible
01 Dec 9.2 04:18:09 50° NW 04:19:51 55° N 04:29:33 10° ENE visible
01 Dec 9.4 06:16:35 10° WNW 06:26:28 58° NNE 06:36:00 10° E visible
02 Dec 10.7 01:59:27 22° ENE 01:59:27 22° ENE 02:02:20 10° ENE visible
02 Dec 9.2 03:57:45 56° NNW 03:58:05 56° NNW 04:07:49 10° ENE visible
02 Dec 9.4 05:56:03 14° WNW 06:04:43 57° NNE 06:14:16 10° E visible
03 Dec 11.0 01:39:02 16° ENE 01:39:02 16° ENE 01:40:38 10° ENE visible
03 Dec 9.4 03:37:20 55° N 03:37:20 55° N 03:46:06 10° ENE visible
03 Dec 9.4 05:35:38 20° WNW 05:42:57 56° NNE 05:52:31 10° E visible
04 Dec 11.3 01:18:36 11° ENE 01:18:36 11° ENE 01:18:55 10° ENE visible
04 Dec 9.6 03:16:54 49° NNE 03:16:54 49° NNE 03:24:23 10° ENE visible
04 Dec 9.4 05:15:12 26° NW 05:21:12 56° N 05:30:47 10° E visible
05 Dec 9.9 02:56:28 41° NE 02:56:28 41° NE 03:02:39 10° ENE visible
05 Dec 9.4 04:54:45 33° NW 04:59:26 55° N 05:09:02 10° E visible
06 Dec 10.3 02:36:01 33° NE 02:36:01 33° NE 02:40:57 10° ENE visible
06 Dec 9.4 04:34:19 41° NW 04:37:40 54° N 04:47:17 10° E visible
06 Dec 9.2 06:33:32 10° WNW 06:43:36 88° SW 06:53:19 10° SE visible
07 Dec 10.6 02:15:35 26° NE 02:15:35 26° NE 02:19:13 10° ENE visible
07 Dec 9.4 04:13:53 48° NNW 04:15:54 54° N 04:25:32 10° E visible
07 Dec 9.2 06:12:11 11° WNW 06:21:55 89° NNE 06:31:39 10° ESE visible
08 Dec 10.9 01:55:09 19° ENE 01:55:09 19° ENE 01:57:30 10° ENE visible
08 Dec 9.4 03:53:27 53° N 03:54:07 53° N 04:03:47 10° E visible
08 Dec 9.1 05:51:45 17° WNW 06:00:12 86° NNE 06:09:58 10° ESE visible
